This is the latest recevied weather packets stored in our database for station/object VK4HIT-13. If no packets are shown the sender has not sent any weather packets the latest 10 day(s).
| Time | Temp. | Humidity | Pressure | Rain* | Wind** | Luminosity | Snow |
|---|---|---|---|---|---|---|---|
| 1777426783 | 23.89° C | 62% | 1024.1 hPa | 0 mm | - | - | - |
| 1777426483 | 22.78° C | 62% | 1024.1 hPa | 0 mm | - | - | - |
| 1777426183 | 22.78° C | 62% | 1024.2 hPa | 0 mm | - | - | - |
| 1777425883 | 22.78° C | 62% | 1024.3 hPa | 0 mm | - | - | - |
| 1777425583 | 23.33° C | 61% | 1024.3 hPa | 0 mm | - | - | - |
| 1777425283 | 23.33° C | 60% | 1024.2 hPa | 0 mm | - | - | - |
| 1777424983 | 23.33° C | 61% | 1024.5 hPa | 0 mm | - | - | - |
| 1777424683 | 23.33° C | 61% | 1024.5 hPa | 0 mm | - | - | - |
| 1777424383 | 23.33° C | 62% | 1024.6 hPa | 0 mm | - | - | - |
| 1777424083 | 22.78° C | 63% | 1024.7 hPa | 0 mm | - | - | - |
| 1777423783 | 22.78° C | 63% | 1024.6 hPa | 0 mm | - | - | - |
| 1777423483 | 22.78° C | 62% | 1024.7 hPa | 0 mm | - | - | - |
| 1777423183 | 22.78° C | 64% | 1024.6 hPa | 0 mm | - | - | - |
| 1777422883 | 22.22° C | 64% | 1024.7 hPa | 0 mm | - | - | - |
| 1777422583 | 22.78° C | 63% | 1024.7 hPa | 0 mm | - | - | - |
| 1777422283 | 22.22° C | 65% | 1024.8 hPa | 0 mm | - | - | - |
| 1777421983 | 22.22° C | 65% | 1024.9 hPa | 0 mm | - | - | - |
| 1777421683 | 22.22° C | 65% | 1024.9 hPa | 0 mm | - | - | - |
| 1777421383 | 22.22° C | 65% | 1024.9 hPa | 0 mm | - | - | - |
| 1777421084 | 22.22° C | 65% | 1024.9 hPa | 0 mm | - | - | - |
| 1777420783 | 22.22° C | 66% | 1025 hPa | 0 mm | - | - | - |
| 1777420483 | 22.22° C | 66% | 1025 hPa | 0 mm | - | - | - |
| 1777420184 | 22.22° C | 68% | 1025 hPa | 0 mm | - | - | - |
| 1777419884 | 21.67° C | 68% | 1025.1 hPa | 0 mm | - | - | - |
| 1777419583 | 21.67° C | 68% | 1025.2 hPa | 0 mm | - | - | - |
* Rain latest hour (hover to see other rain measurements)
** Current wind speed in m/s (hover to see current wind gust speed)